Tracy, MN

11:09 AM CDT on May 22, 2017 (GMT -0500)
Tracy

Weather History for KTKC - June, 2014

Change the Weather History Date:

Sunday, June 8, 2014

  Actual Average (KMML) Record (KMML)
Temperature  
Mean Temperature 60 °F -  
Max Temperature 70 °F 78 °F 95 °F (1985)
Min Temperature 51 °F 55 °F 37 °F (1978)
Degree Days  
Heating Degree Days 4    
Growing Degree Days 10 (Base 50)    
Moisture  
Dew Point 44 °F    
Average Humidity 58    
Maximum Humidity 86    
Minimum Humidity 30    
Precipitation  
Precipitation 0.00 in - - ()
Sea Level Pressure  
Sea Level Pressure 30.10 in    
Wind  
Wind Speed 2 mph (East)    
Max Wind Speed 10 mph    
Max Gust Speed 16 mph    
Visibility 10 miles    
Events      
Averages and records for this station are not official NWS values.
T = Trace of Precipitation, MM = Missing Value Source: NWS Daily Summary

Daily Weather History Graph

Daily Weather History Graph

Search for Another Location

Airport or City:

Trip Planner

Search our weather history database for the weather conditions in past years. The results will help you decide how hot, cold, wet, or windy it might be!

Date:

Astronomy

Jun. 08, 2014 Rise Set
Actual Time 5:38 AM CDT 9:04 PM CDT
Civil Twilight 5:02 AM CDT 9:40 PM CDT
Nautical Twilight 4:15 AM CDT 10:28 PM CDT
Astronomical Twilight 3:15 AM CDT 11:28 PM CDT
Moon 4:14 PM CDT (6/8) 2:43 AM CDT (6/8)
Length of Visible Light 16h 37m
Length of Day
15h 25m
Waxing Gibbous, 77% of the Moon is Illuminated
Jun 8
Waxing Gibbous
Jun 12
Full
Jun 19
Last Quarter
Jun 27
New
Jul 5
First Quarter

Hourly Weather History & Observations

Time (CDT) Temp. Dew Point Humidity Pressure Visibility Wind Dir Wind Speed Gust Speed Precip Events Conditions
12:12 AM 53.6 °F 48.6 °F 83% 30.11 in 10.0 mi Calm Calm - N/A   Clear
12:33 AM 53.2 °F 48.4 °F 84% 30.10 in 10.0 mi Calm Calm - N/A   Clear
12:52 AM 53.1 °F 48.6 °F 85% 30.11 in 10.0 mi Calm Calm - N/A   Clear
1:12 AM 52.2 °F 48.2 °F 86% 30.11 in 10.0 mi Calm Calm - N/A   Clear
1:33 AM 53.6 °F 48.9 °F 84% 30.10 in 10.0 mi Calm Calm - N/A   Clear
1:52 AM 52.7 °F 48.4 °F 85% 30.10 in 10.0 mi Calm Calm - N/A   Clear
2:12 AM 54.9 °F 48.6 °F 79% 30.10 in 10.0 mi Calm Calm - N/A   Clear
2:33 AM 51.8 °F 47.7 °F 86% 30.10 in 10.0 mi Calm Calm - N/A   Clear
2:52 AM 52.7 °F 48.0 °F 84% 30.10 in 10.0 mi Calm Calm - N/A   Clear
3:12 AM 51.3 °F 47.3 °F 86% 30.11 in 10.0 mi Calm Calm - N/A   Clear
3:32 AM 52.7 °F 48.0 °F 84% 30.11 in 10.0 mi Calm Calm - N/A   Clear
3:53 AM 53.2 °F 48.0 °F 82% 30.11 in 10.0 mi Calm Calm - N/A   Clear
4:13 AM 51.8 °F 47.7 °F 86% 30.11 in 10.0 mi Calm Calm - N/A   Clear
4:32 AM 54.0 °F 47.8 °F 80% 30.11 in 10.0 mi Calm Calm - N/A   Clear
4:52 AM 53.6 °F 47.5 °F 80% 30.11 in 10.0 mi Calm Calm - N/A   Clear
5:13 AM 51.8 °F 46.9 °F 83% 30.12 in 10.0 mi Calm Calm - N/A   Clear
5:32 AM 53.6 °F 47.3 °F 79% 30.11 in 10.0 mi Calm Calm - N/A   Clear
5:52 AM 52.5 °F 46.6 °F 80% 30.11 in 10.0 mi Calm Calm - N/A   Clear
6:12 AM 53.1 °F 46.8 °F 79% 30.11 in 10.0 mi Calm Calm - N/A   Clear
6:32 AM 53.6 °F 46.8 °F 78% 30.11 in 10.0 mi Calm Calm - N/A   Clear
6:52 AM 54.3 °F 47.5 °F 78% 30.12 in 10.0 mi Calm Calm - N/A   Clear
7:12 AM 55.9 °F 47.7 °F 74% 30.12 in 10.0 mi Calm Calm - N/A   Clear
7:32 AM 57.0 °F 48.6 °F 73% 30.13 in 10.0 mi Calm Calm - N/A   Clear
7:52 AM 58.3 °F 48.7 °F 71% 30.14 in 10.0 mi Calm Calm - N/A   Clear
8:12 AM 59.4 °F 48.4 °F 67% 30.14 in 10.0 mi Calm Calm - N/A   Clear
8:33 AM 60.6 °F 48.7 °F 65% 30.14 in 10.0 mi Calm Calm - N/A   Clear
8:52 AM 62.1 °F 47.7 °F 59% 30.14 in 10.0 mi Calm Calm - N/A   Clear
9:12 AM 63.5 °F 47.1 °F 55% 30.14 in 10.0 mi Calm Calm - N/A   Clear
9:32 AM 65.3 °F 45.5 °F 49% 30.14 in 10.0 mi Calm Calm - N/A   Clear
9:52 AM 66.6 °F 45.0 °F 46% 30.14 in 10.0 mi Calm Calm - N/A   Clear
1:12 PM 70.0 °F 36.9 °F 30% 30.12 in 10.0 mi ENE 8.1 mph 16.1 mph N/A   Clear
1:32 PM 68.9 °F 38.8 °F 33% 30.11 in 10.0 mi East 10.4 mph - N/A   Clear
1:52 PM 68.9 °F 38.1 °F 32% 30.11 in 10.0 mi ESE 10.4 mph - N/A   Clear
2:12 PM 69.1 °F 39.0 °F 33% 30.11 in 10.0 mi ESE 6.9 mph - N/A   Scattered Clouds
2:32 PM 68.9 °F 37.9 °F 32% 30.10 in 10.0 mi SE 5.8 mph - N/A   Clear
2:52 PM 68.7 °F 38.1 °F 33% 30.10 in 10.0 mi East 8.1 mph - N/A   Clear
3:13 PM 68.2 °F 38.5 °F 34% 30.10 in 10.0 mi ESE 6.9 mph - N/A   Scattered Clouds
3:32 PM 68.5 °F 37.8 °F 32% 30.09 in 10.0 mi SE 6.9 mph - N/A   Scattered Clouds
3:52 PM 68.9 °F 37.8 °F 32% 30.10 in 10.0 mi ESE 4.6 mph - N/A   Scattered Clouds
4:12 PM 69.1 °F 37.9 °F 32% 30.08 in 10.0 mi ESE 6.9 mph - N/A   Scattered Clouds
4:32 PM 68.9 °F 38.1 °F 32% 30.08 in 10.0 mi ESE 6.9 mph - N/A   Scattered Clouds
4:52 PM 68.4 °F 38.5 °F 33% 30.08 in 10.0 mi ESE 5.8 mph - N/A   Mostly Cloudy
5:13 PM 68.2 °F 39.2 °F 35% 30.07 in 10.0 mi East 4.6 mph - N/A   Scattered Clouds
5:33 PM 68.2 °F 39.6 °F 35% 30.07 in 10.0 mi ESE 4.6 mph - N/A   Mostly Cloudy
5:52 PM 68.0 °F 38.8 °F 34% 30.08 in 10.0 mi East 3.5 mph - N/A   Overcast
6:12 PM 67.6 °F 38.5 °F 34% 30.07 in 10.0 mi Calm Calm - N/A   Overcast
6:32 PM 67.3 °F 40.6 °F 38% 30.07 in 10.0 mi East 3.5 mph - N/A   Overcast
6:52 PM 67.5 °F 40.6 °F 38% 30.06 in 10.0 mi ENE 3.5 mph - N/A   Overcast
7:12 PM 66.9 °F 41.2 °F 39% 30.06 in 10.0 mi East 3.5 mph - N/A   Overcast
7:32 PM 66.0 °F 43.7 °F 44% 30.04 in 10.0 mi East 5.8 mph - N/A   Overcast
7:52 PM 65.3 °F 42.1 °F 43% 30.04 in 10.0 mi ENE 4.6 mph - N/A   Overcast
8:12 PM 65.1 °F 45.0 °F 48% 30.05 in 10.0 mi Calm Calm - N/A   Overcast
8:32 PM 64.9 °F 44.6 °F 48% 30.05 in 10.0 mi Calm Calm - N/A   Overcast
8:52 PM 64.4 °F 46.2 °F 52% 30.05 in 10.0 mi Calm Calm - N/A   Overcast
9:32 PM 63.5 °F 44.8 °F 51% 30.06 in 10.0 mi ENE 3.5 mph - N/A   Overcast
9:52 PM 63.0 °F 45.9 °F 54% 30.06 in 10.0 mi East 3.5 mph - N/A   Overcast
10:12 PM 62.6 °F 45.5 °F 54% 30.06 in 10.0 mi East 4.6 mph - N/A   Overcast
10:32 PM 62.2 °F 46.9 °F 57% 30.06 in 10.0 mi East 3.5 mph - N/A   Overcast
10:52 PM 62.1 °F 46.9 °F 58% 30.06 in 10.0 mi ESE 4.6 mph - N/A   Overcast
11:12 PM 62.1 °F 46.4 °F 56% 30.07 in 10.0 mi ESE 4.6 mph - N/A   Overcast
11:32 PM 61.9 °F 46.6 °F 57% 30.07 in 10.0 mi SE 4.6 mph - N/A   Overcast
11:52 PM 61.7 °F 46.6 °F 58% 30.06 in 10.0 mi SE 4.6 mph - N/A   Overcast